#timestamp,LO_Frequency,Hit,StdDev 
1637618415.1,286046999.7,N
1637618435.9,286047002.7,N
1637618455.7,286047000.6,N
1637618475.6,286047000.4,N
1637618495.4,286047000.7,N
1637618515.2,286047000.3,N
1637618535.1,286047002.7,N
1637618536.0,286047002.7,N
1637618555.8,286047002.7,N
1637618575.7,286046999.7,N
1637618595.5,286047000.6,N
1637618615.3,286047000.3,N
1637618635.2,286047002.7,N
1637618655.9,286047000.0,N
1637618675.7,286047001.0,N
1637618695.6,286047000.3,N
1637618715.4,286047002.7,N
1637618735.2,286047002.4,N
1637618755.1,286046999.8,N
1637618756.0,286046999.8,N
1637618775.8,286047002.2,N
1637618795.7,286047002.0,N
1637618815.5,286047004.4,Y
1637618835.3,286047002.5,P
1637618855.2,286047002.1,N
1637618875.0,286047000.8,N
1637618875.9,286047000.8,N
1637618895.8,286047000.1,N
1637618915.6,286047000.6,N
1637618935.4,286047000.3,N
1637618955.3,286047000.5,N
1637618975.1,286047000.7,N
1637618995.8,286047001.1,N
1637619015.7,286047000.9,N
1637619035.5,286047000.8,N
1637619055.4,286046999.7,N
1637619075.2,286047002.6,Y
1637619095.0,286046998.5,P
1637619095.9,286046998.5,N
1637619115.8,286047000.9,N
1637619135.6,286047000.8,N
1637619155.5,286047000.9,N
1637619175.3,286047000.6,N
1637619195.1,286047000.7,N
1637619215.9,286047000.8,N
1637619235.7,286046998.9,N
1637619255.5,286046998.9,N
1637619275.4,286047001.1,N
1637619295.2,286046998.9,N
1637619315.1,286046998.3,N
1637619316.0,286046998.3,N
1637619335.8,286046998.1,N
1637619355.6,286046999.8,N
1637619375.5,286047000.4,N
1637619395.3,286047001.2,N
1637619415.1,286047000.2,N
1637619435.9,286047000.7,N
1637619455.7,286047000.4,N
1637619475.6,286047000.8,N
1637619495.4,286046998.5,N
1637619515.2,286047000.7,N
1637619535.1,286046998.8,N
1637619536.0,286046998.8,N
1637619555.8,286046998.1,N
1637619575.6,286046998.7,N
1637619595.5,286046998.3,N
1637619615.3,286047001.2,N
1637619635.2,286047000.3,N
1637619655.9,286047001.0,N
1637619675.7,286046998.1,N
1637619695.6,286047000.7,N
1637619715.4,286047002.8,N
1637619735.2,286047002.4,N
1637619755.1,286047000.3,N
1637619756.0,286047000.3,N
1637619775.8,286046999.7,N
1637619795.7,286047000.1,N
1637619815.5,286047000.1,N
1637619835.3,286047001.1,N
1637619855.2,286046998.5,N
1637619875.0,286046996.6,N
1637619875.9,286046996.6,N
1637619895.7,286046999.2,N
1637619915.6,286046998.8,N
1637619935.4,286046998.8,N
1637619955.3,286046998.7,N
1637619975.1,286046998.4,N
1637619976.0,286046998.4,N
1637619995.8,286046998.8,N
1637620015.7,286046998.9,N
1637620035.5,286046998.7,N
1637620055.3,286046998.3,N
1637620075.2,286046999.1,N
1637620095.0,286046998.9,N
1637620095.9,286046998.9,N
1637620115.8,286047001.2,N
1637620135.6,286046998.1,N
1637620155.4,286046998.6,N
1637620175.3,286047000.7,N
1637620195.1,286047000.9,N
1637620215.9,286047000.5,N
1637620235.7,286047001.1,N
1637620255.5,286047001.1,N
1637620275.4,286046998.5,N
1637620295.2,286047000.9,N
1637620315.0,286046998.6,N
1637620315.9,286046998.6,N
1637620335.8,286046999.9,N
1637620355.6,286047000.9,N
1637620375.5,286047000.7,N
1637620395.3,286047000.4,N
1637620415.1,286047000.9,N
1637620435.9,286047000.5,N
1637620455.7,286047002.7,N
1637620475.5,286047002.4,N
1637620495.4,286047002.3,N
1637620515.2,286046999.7,N
1637620535.1,286047002.8,N
1637620536.0,286047002.8,N
1637620555.8,286047002.4,N
1637620575.6,286047002.4,N
1637620595.5,286047002.5,N
1637620615.3,286047001.6,N
1637620635.2,286047002.2,N
1637620655.9,286047002.4,N
1637620675.7,286047002.6,N
1637620695.6,286046999.9,N
1637620715.4,286047002.1,N
1637620735.2,286047002.7,N
1637620755.1,286047002.4,N
1637620756.0,286047002.4,N
1637620775.8,286047002.7,N
1637620795.7,286047002.2,N
1637620815.5,286047002.3,N
1637620835.3,286047000.5,N
1637620855.2,286047002.7,N
1637620875.0,286047002.8,N
1637620875.9,286047002.8,N
1637620895.8,286046999.9,N
1637620915.6,286047000.0,N
1637620935.4,286047000.2,N
1637620955.3,286046999.9,N
1637620975.1,286047002.7,N
1637620995.8,286046999.8,N
1637621015.7,286047000.2,N
1637621035.5,286047000.2,N
1637621055.4,286047000.6,N
1637621075.2,286047000.0,N
1637621095.0,286046999.9,N
1637621095.9,286046999.9,N
1637621115.8,286046999.7,N
1637621135.6,286046999.8,N
1637621155.4,286047002.1,N
1637621175.3,286047001.5,N
1637621195.1,286047001.7,N
1637621215.9,286047004.2,Y
1637621235.7,286047001.6,P
1637621255.5,286047001.9,P
1637621275.4,286047002.3,P
1637621295.2,286047002.7,Y
1637621315.0,286047001.1,P
1637621316.0,286047001.1,P
1637621335.8,286047000.3,N
1637621355.6,286047000.5,N
1637621375.5,286047000.4,N
1637621395.3,286047002.7,Y
1637621415.1,286046998.2,P
1637621435.9,286046999.2,N
1637621455.7,286046996.7,P
1637621475.6,286046998.3,N
1637621495.4,286046998.5,N
1637621515.2,286046998.9,N
1637621535.1,286046999.5,N
1637621536.0,286046999.5,N
1637621555.8,286046996.5,Y
1637621575.6,286046998.9,P
1637621595.5,286046999.3,P
1637621615.3,286046998.4,P
1637621635.2,286046998.4,Y
1637621655.9,286046998.7,P
1637621675.7,286046998.4,P
1637621695.6,286046998.4,P
1637621715.4,286047000.0,N
1637621735.3,286047002.8,Y
1637621755.1,286047004.4,P
1637621756.0,286047004.4,N
1637621775.8,286047004.4,N
1637621795.7,286047003.8,N
1637621815.5,286047003.8,N
1637621835.4,286047001.7,N
1637621855.2,286047002.1,N
1637621875.0,286047001.4,N
1637621875.9,286047001.4,N
1637621895.8,286047001.3,N
1637621915.6,286047004.0,N
1637621935.4,286047004.2,N
1637621955.3,286047001.8,N
1637621975.1,286047003.5,N
1637621995.9,286047003.7,N
